Time,TemperatureF,DewpointF,PressureIn,WindDirection,WindDirectionDegrees,WindSpeedMPH,WindSpeedGustMPH,Humidity,HourlyPrecipIn,Conditions,Clouds,dailyrainin,SoftwareType,DateUTC
2013-02-22 00:01:00,31.6,21.6,30.10,SSW,198,7.0,9.0,66,0.00,,---,0.00,VWS V14.00,2013-02-22 08:01:00,
2013-02-22 00:06:00,31.9,21.5,30.10,SSW,206,9.0,12.0,65,0.00,,---,0.00,VWS V14.00,2013-02-22 08:06:00,
2013-02-22 00:11:00,31.9,21.5,30.10,SSW,202,7.0,12.0,65,0.00,,---,0.00,VWS V14.00,2013-02-22 08:11:00,
2013-02-22 00:16:00,32.1,21.7,30.09,South,188,7.0,13.0,65,0.00,,---,0.00,VWS V14.00,2013-02-22 08:16:00,
2013-02-22 00:21:00,32.1,21.3,30.09,SSW,192,5.0,6.0,64,0.00,,---,0.00,VWS V14.00,2013-02-22 08:21:00,
2013-02-22 00:26:00,32.2,21.8,30.09,SSW,195,7.0,7.0,65,0.00,,---,0.00,VWS V14.00,2013-02-22 08:26:00,
2013-02-22 00:31:00,32.5,21.7,30.09,SSW,205,7.0,7.0,64,0.00,,---,0.00,VWS V14.00,2013-02-22 08:31:00,
2013-02-22 00:36:00,32.5,22.1,30.09,South,188,6.0,16.0,65,0.00,,---,0.00,VWS V14.00,2013-02-22 08:36:00,
2013-02-22 00:42:00,32.7,21.5,30.09,South,191,7.0,14.0,63,0.00,,---,0.00,VWS V14.00,2013-02-22 08:42:00,
2013-02-22 00:47:00,32.5,21.7,30.08,SSW,202,7.0,16.0,64,0.00,,---,0.00,VWS V14.00,2013-02-22 08:47:00,
2013-02-22 00:52:00,32.5,21.7,30.08,SSW,203,11.0,14.0,64,0.00,,---,0.00,VWS V14.00,2013-02-22 08:52:00,
2013-02-22 00:57:00,32.5,22.1,30.08,SSW,205,14.0,18.0,65,0.00,,---,0.00,VWS V14.00,2013-02-22 08:57:00,
2013-02-22 01:02:00,32.5,21.3,30.08,South,181,12.0,16.0,63,0.00,,---,0.00,VWS V14.00,2013-02-22 09:02:00,
2013-02-22 01:07:00,32.4,21.6,30.08,SW,227,8.0,19.0,64,0.00,,---,0.00,VWS V14.00,2013-02-22 09:07:00,
2013-02-22 01:12:00,32.2,21.4,30.08,South,178,12.0,14.0,64,0.00,,---,0.00,VWS V14.00,2013-02-22 09:12:00,
2013-02-22 01:17:00,32.1,22.0,30.09,SSW,210,10.0,14.0,66,0.00,,---,0.00,VWS V14.00,2013-02-22 09:17:00,
2013-02-22 01:22:00,31.9,22.2,30.09,South,181,10.0,10.0,67,0.00,,---,0.00,VWS V14.00,2013-02-22 09:22:00,
2013-02-22 01:27:00,31.8,22.1,30.09,South,186,10.0,14.0,67,0.00,,---,0.00,VWS V14.00,2013-02-22 09:27:00,
2013-02-22 01:32:00,31.9,22.2,30.09,SSW,195,7.0,17.0,67,0.00,,---,0.00,VWS V14.00,2013-02-22 09:32:00,
2013-02-22 01:37:00,32.1,22.8,30.09,SSW,193,17.0,20.0,68,0.00,,---,0.00,VWS V14.00,2013-02-22 09:37:00,
2013-02-22 01:42:00,32.1,22.0,30.09,SSW,198,16.0,16.0,66,0.00,,---,0.00,VWS V14.00,2013-02-22 09:42:00,
2013-02-22 01:47:00,32.1,22.4,30.09,South,189,11.0,22.0,67,0.00,,---,0.00,VWS V14.00,2013-02-22 09:47:00,
2013-02-22 01:52:00,31.9,22.2,30.09,South,175,18.0,19.0,67,0.00,,---,0.00,VWS V14.00,2013-02-22 09:52:00,
2013-02-22 01:57:00,31.9,22.5,30.09,SSW,196,10.0,19.0,68,0.00,,---,0.00,VWS V14.00,2013-02-22 09:57:00,
2013-02-22 02:02:00,31.9,22.5,30.08,South,186,9.0,17.0,68,0.00,,---,0.00,VWS V14.00,2013-02-22 10:02:00,
2013-02-22 02:08:00,31.9,22.2,30.08,SSW,192,11.0,20.0,67,0.00,,---,0.00,VWS V14.00,2013-02-22 10:08:00,
2013-02-22 02:13:00,31.9,21.9,30.08,South,191,10.0,18.0,66,0.00,,---,0.00,VWS V14.00,2013-02-22 10:13:00,
2013-02-22 02:18:00,31.9,22.2,30.08,SSW,212,17.0,19.0,67,0.00,,---,0.00,VWS V14.00,2013-02-22 10:18:00,
2013-02-22 02:23:00,31.9,22.2,30.08,SSW,202,12.0,21.0,67,0.00,,---,0.00,VWS V14.00,2013-02-22 10:23:00,
2013-02-22 02:28:00,31.9,22.2,30.08,SSW,206,20.0,25.0,67,0.00,,---,0.00,VWS V14.00,2013-02-22 10:28:00,
2013-02-22 02:33:00,31.9,22.5,30.07,SSW,195,14.0,21.0,68,0.00,,---,0.00,VWS V14.00,2013-02-22 10:33:00,
2013-02-22 02:38:00,32.1,22.8,30.07,SW,215,13.0,21.0,68,0.00,,---,0.00,VWS V14.00,2013-02-22 10:38:00,
2013-02-22 02:43:00,32.1,22.4,30.07,SSW,200,12.0,18.0,67,0.00,,---,0.00,VWS V14.00,2013-02-22 10:43:00,
2013-02-22 02:48:00,32.1,22.0,30.08,SSW,193,16.0,18.0,66,0.00,,---,0.00,VWS V14.00,2013-02-22 10:48:00,
2013-02-22 02:53:00,31.9,22.2,30.08,South,186,13.0,13.0,67,0.00,,---,0.00,VWS V14.00,2013-02-22 10:53:00,
2013-02-22 02:58:00,31.8,22.5,30.08,South,189,9.0,17.0,68,0.00,,---,0.00,VWS V14.00,2013-02-22 10:58:00,
2013-02-22 03:03:00,31.8,22.5,30.08,SSW,210,13.0,16.0,68,0.00,,---,0.00,VWS V14.00,2013-02-22 11:03:00,
2013-02-22 03:08:00,31.9,22.5,30.08,SSW,192,5.0,18.0,68,0.00,,---,0.00,VWS V14.00,2013-02-22 11:08:00,
2013-02-22 03:13:00,31.9,22.2,30.08,South,189,10.0,13.0,67,0.00,,---,0.00,VWS V14.00,2013-02-22 11:13:00,
2013-02-22 03:19:00,32.1,22.4,30.08,SSW,198,19.0,19.0,67,0.00,,---,0.00,VWS V14.00,2013-02-22 11:19:00,
2013-02-22 03:24:00,32.1,22.4,30.08,South,175,9.0,13.0,67,0.00,,---,0.00,VWS V14.00,2013-02-22 11:24:00,
2013-02-22 03:29:00,31.9,21.9,30.08,South,191,7.0,15.0,66,0.00,,---,0.00,VWS V14.00,2013-02-22 11:29:00,
2013-02-22 03:34:00,32.1,22.4,30.09,South,179,17.0,17.0,67,0.00,,---,0.00,VWS V14.00,2013-02-22 11:34:00,
2013-02-22 03:39:00,32.1,22.0,30.09,South,174,11.0,19.0,66,0.00,,---,0.00,VWS V14.00,2013-02-22 11:39:00,
2013-02-22 03:44:00,32.2,22.5,30.09,South,188,12.0,17.0,67,0.00,,---,0.00,VWS V14.00,2013-02-22 11:44:00,
2013-02-22 03:49:00,32.1,22.0,30.08,South,186,10.0,19.0,66,0.00,,---,0.00,VWS V14.00,2013-02-22 11:49:00,
2013-02-22 03:54:00,32.2,22.1,30.08,South,184,8.0,21.0,66,0.00,,---,0.00,VWS V14.00,2013-02-22 11:54:00,
2013-02-22 03:59:00,32.5,21.7,30.08,South,175,17.0,21.0,64,0.00,,---,0.00,VWS V14.00,2013-02-22 11:59:00,
2013-02-22 04:04:00,32.7,21.1,30.07,SW,217,8.0,21.0,62,0.00,,---,0.00,VWS V14.00,2013-02-22 12:04:00,
2013-02-22 04:09:00,32.7,21.9,30.07,South,184,11.0,21.0,64,0.00,,---,0.00,VWS V14.00,2013-02-22 12:09:00,
2013-02-22 04:14:00,32.7,21.5,30.07,SSW,198,12.0,16.0,63,0.00,,---,0.00,VWS V14.00,2013-02-22 12:14:00,
2013-02-22 04:19:00,32.9,21.3,30.08,SSW,200,14.0,19.0,62,0.00,,---,0.00,VWS V14.00,2013-02-22 12:19:00,
2013-02-22 04:24:00,32.7,21.9,30.08,SW,216,12.0,16.0,64,0.00,,---,0.00,VWS V14.00,2013-02-22 12:24:00,
2013-02-22 04:29:00,32.7,21.5,30.08,South,184,16.0,19.0,63,0.00,,---,0.00,VWS V14.00,2013-02-22 12:29:00,
2013-02-22 04:34:00,32.7,22.2,30.08,SSW,192,13.0,22.0,65,0.00,,---,0.00,VWS V14.00,2013-02-22 12:34:00,
2013-02-22 04:39:00,32.7,21.9,30.08,South,185,11.0,22.0,64,0.00,,---,0.00,VWS V14.00,2013-02-22 12:39:00,
2013-02-22 04:45:00,32.8,22.3,30.07,SW,220,10.0,20.0,65,0.00,,---,0.00,VWS V14.00,2013-02-22 12:45:00,
2013-02-22 04:50:00,32.9,22.1,30.07,SSW,192,12.0,21.0,64,0.00,,---,0.00,VWS V14.00,2013-02-22 12:50:00,
2013-02-22 04:55:00,32.8,22.7,30.07,SW,227,9.0,21.0,66,0.00,,---,0.00,VWS V14.00,2013-02-22 12:55:00,
2013-02-22 05:00:00,32.7,22.2,30.07,SSW,202,13.0,21.0,65,0.00,,---,0.00,VWS V14.00,2013-02-22 13:00:00,
2013-02-22 05:05:00,32.7,22.6,30.07,South,186,13.0,18.0,66,0.00,,---,0.00,VWS V14.00,2013-02-22 13:05:00,
2013-02-22 05:10:00,32.7,22.6,30.07,SSW,192,10.0,18.0,66,0.00,,---,0.00,VWS V14.00,2013-02-22 13:10:00,
2013-02-22 05:15:00,32.7,23.0,30.09,SW,216,11.0,19.0,67,0.00,,---,0.00,VWS V14.00,2013-02-22 13:15:00,
2013-02-22 05:20:00,32.7,22.2,30.09,SSW,203,11.0,19.0,65,0.00,,---,0.00,VWS V14.00,2013-02-22 13:20:00,
2013-02-22 05:25:00,32.8,23.1,30.09,SSW,203,10.0,24.0,67,0.00,,---,0.00,VWS V14.00,2013-02-22 13:25:00,
2013-02-22 05:30:00,32.8,22.7,30.07,SSW,198,10.0,24.0,66,0.00,,---,0.00,VWS V14.00,2013-02-22 13:30:00,
2013-02-22 05:35:00,32.8,23.1,30.07,SSW,199,13.0,22.0,67,0.00,,---,0.00,VWS V14.00,2013-02-22 13:35:00,
2013-02-22 05:40:00,32.8,22.7,30.07,SSW,208,11.0,22.0,66,0.00,,---,0.00,VWS V14.00,2013-02-22 13:40:00,
2013-02-22 05:45:00,32.8,23.1,30.07,South,189,12.0,20.0,67,0.00,,---,0.00,VWS V14.00,2013-02-22 13:45:00,
2013-02-22 05:50:00,32.8,22.3,30.07,South,172,25.0,25.0,65,0.00,,---,0.00,VWS V14.00,2013-02-22 13:50:00,
2013-02-22 05:56:00,32.8,22.3,30.07,South,188,11.0,26.0,65,0.00,,---,0.00,VWS V14.00,2013-02-22 13:56:00,
2013-02-22 06:01:00,32.8,22.7,30.08,SSW,192,14.0,17.0,66,0.00,,---,0.00,VWS V14.00,2013-02-22 14:01:00,
2013-02-22 06:06:00,32.8,22.0,30.08,SSW,208,10.0,26.0,64,0.00,,---,0.00,VWS V14.00,2013-02-22 14:06:00,
2013-02-22 06:11:00,32.8,22.3,30.08,SSW,212,10.0,12.0,65,0.00,,---,0.00,VWS V14.00,2013-02-22 14:11:00,
2013-02-22 06:16:00,32.9,22.1,30.07,SW,224,12.0,17.0,64,0.00,,---,0.00,VWS V14.00,2013-02-22 14:16:00,
2013-02-22 06:21:00,32.9,22.8,30.07,SSW,205,12.0,13.0,66,0.00,,---,0.00,VWS V14.00,2013-02-22 14:21:00,
2013-02-22 06:26:00,32.9,22.1,30.07,SW,220,12.0,21.0,64,0.00,,---,0.00,VWS V14.00,2013-02-22 14:26:00,
2013-02-22 06:31:00,32.9,22.4,30.07,SSW,205,17.0,17.0,65,0.00,,---,0.00,VWS V14.00,2013-02-22 14:31:00,
2013-02-22 06:36:00,32.9,22.1,30.07,South,185,7.0,21.0,64,0.00,,---,0.00,VWS V14.00,2013-02-22 14:36:00,
2013-02-22 06:41:00,32.9,22.1,30.07,South,179,12.0,16.0,64,0.00,,---,0.00,VWS V14.00,2013-02-22 14:41:00,
2013-02-22 06:46:00,32.9,22.1,30.07,SSW,209,10.0,19.0,64,0.00,,---,0.00,VWS V14.00,2013-02-22 14:46:00,
2013-02-22 06:51:00,32.9,22.1,30.07,SSW,198,9.0,13.0,64,0.00,,---,0.00,VWS V14.00,2013-02-22 14:51:00,
2013-02-22 06:56:00,32.9,21.7,30.07,SSW,199,10.0,17.0,63,0.00,,---,0.00,VWS V14.00,2013-02-22 14:56:00,
2013-02-22 07:01:00,32.8,22.0,30.08,South,188,7.0,14.0,64,0.00,,---,0.00,VWS V14.00,2013-02-22 15:01:00,
2013-02-22 07:06:00,32.8,22.0,30.08,South,176,7.0,17.0,64,0.00,,---,0.00,VWS V14.00,2013-02-22 15:06:00,
2013-02-22 07:12:00,32.8,21.6,30.08,SSW,195,9.0,11.0,63,0.00,,---,0.00,VWS V14.00,2013-02-22 15:12:00,
2013-02-22 07:17:00,32.8,21.6,30.08,South,186,12.0,16.0,63,0.00,,---,0.00,VWS V14.00,2013-02-22 15:17:00,
2013-02-22 07:22:00,32.7,21.9,30.08,South,186,10.0,11.0,64,0.00,,---,0.00,VWS V14.00,2013-02-22 15:22:00,
2013-02-22 07:27:00,32.8,22.0,30.08,WSW,251,8.0,19.0,64,0.00,,---,0.00,VWS V14.00,2013-02-22 15:27:00,
2013-02-22 07:32:00,32.8,21.6,30.08,SSW,192,8.0,12.0,63,0.00,,---,0.00,VWS V14.00,2013-02-22 15:32:00,
2013-02-22 07:37:00,32.7,21.5,30.08,South,191,12.0,14.0,63,0.00,,---,0.00,VWS V14.00,2013-02-22 15:37:00,
2013-02-22 07:42:00,32.7,21.9,30.08,South,182,14.0,20.0,64,0.00,,---,0.00,VWS V14.00,2013-02-22 15:42:00,
2013-02-22 07:47:00,32.7,21.1,30.07,South,191,13.0,26.0,62,0.00,,---,0.00,VWS V14.00,2013-02-22 15:47:00,
2013-02-22 07:52:00,32.8,21.6,30.07,South,186,10.0,14.0,63,0.00,,---,0.00,VWS V14.00,2013-02-22 15:52:00,
2013-02-22 07:57:00,32.9,21.7,30.07,SSW,198,13.0,25.0,63,0.00,,---,0.00,VWS V14.00,2013-02-22 15:57:00,
2013-02-22 08:02:00,32.9,21.7,30.07,SSW,193,17.0,19.0,63,0.00,,---,0.00,VWS V14.00,2013-02-22 16:02:00,
2013-02-22 08:07:00,33.1,21.9,30.07,SSW,206,11.0,21.0,63,0.00,,---,0.00,VWS V14.00,2013-02-22 16:07:00,
2013-02-22 08:12:00,32.9,21.7,30.07,SSW,210,8.0,21.0,63,0.00,,---,0.00,VWS V14.00,2013-02-22 16:12:00,
2013-02-22 08:17:00,32.9,22.1,30.07,South,188,5.0,21.0,64,0.00,,---,0.00,VWS V14.00,2013-02-22 16:17:00,
2013-02-22 08:22:00,32.8,21.6,30.07,South,176,16.0,17.0,63,0.00,,---,0.00,VWS V14.00,2013-02-22 16:22:00,
2013-02-22 08:27:00,32.8,21.2,30.07,SW,217,17.0,21.0,62,0.00,,---,0.00,VWS V14.00,2013-02-22 16:27:00,
2013-02-22 08:32:00,32.8,21.6,30.06,SW,219,12.0,21.0,63,0.00,,---,0.00,VWS V14.00,2013-02-22 16:32:00,
2013-02-22 08:38:00,32.8,22.0,30.06,South,189,13.0,21.0,64,0.00,,---,0.00,VWS V14.00,2013-02-22 16:38:00,
2013-02-22 08:43:00,32.7,21.5,30.06,SSW,206,12.0,22.0,63,0.00,,---,0.00,VWS V14.00,2013-02-22 16:43:00,
2013-02-22 08:48:00,32.7,21.1,30.06,SSW,199,14.0,22.0,62,0.00,,---,0.00,VWS V14.00,2013-02-22 16:48:00,
2013-02-22 08:53:00,32.7,21.5,30.06,SSW,196,6.0,14.0,63,0.00,,---,0.00,VWS V14.00,2013-02-22 16:53:00,
2013-02-22 08:58:00,32.8,20.9,30.06,SSW,206,7.0,14.0,61,0.00,,---,0.00,VWS V14.00,2013-02-22 16:58:00,
2013-02-22 09:03:00,32.8,20.9,30.05,SSW,196,8.0,12.0,61,0.00,,---,0.00,VWS V14.00,2013-02-22 17:03:00,
2013-02-22 09:08:00,32.9,21.3,30.05,SSW,193,7.0,14.0,62,0.00,,---,0.00,VWS V14.00,2013-02-22 17:08:00,
2013-02-22 09:13:00,32.9,21.3,30.05,South,188,10.0,18.0,62,0.00,,---,0.00,VWS V14.00,2013-02-22 17:13:00,
2013-02-22 09:18:00,32.9,20.9,30.04,South,181,5.0,20.0,61,0.00,,---,0.00,VWS V14.00,2013-02-22 17:18:00,
2013-02-22 09:23:00,32.9,21.3,30.04,SSW,200,7.0,21.0,62,0.00,,---,0.00,VWS V14.00,2013-02-22 17:23:00,
2013-02-22 09:28:00,32.9,22.1,30.04,SSW,200,12.0,21.0,64,0.00,,---,0.00,VWS V14.00,2013-02-22 17:28:00,
2013-02-22 09:33:00,32.8,21.6,30.04,SSW,196,12.0,24.0,63,0.00,,---,0.00,VWS V14.00,2013-02-22 17:33:00,
2013-02-22 09:38:00,32.8,21.2,30.04,SSW,192,13.0,26.0,62,0.00,,---,0.00,VWS V14.00,2013-02-22 17:38:00,
2013-02-22 09:43:00,32.8,21.2,30.04,SSW,206,19.0,35.0,62,0.00,,---,0.00,VWS V14.00,2013-02-22 17:43:00,
2013-02-22 09:48:00,33.1,21.5,30.01,SSW,198,19.0,35.0,62,0.00,,---,0.00,VWS V14.00,2013-02-22 17:48:00,
2013-02-22 09:54:00,33.2,20.8,30.01,South,179,11.0,28.0,60,0.00,,---,0.00,VWS V14.00,2013-02-22 17:54:00,
2013-02-22 09:59:00,33.4,21.0,30.01,SSW,198,9.0,28.0,60,0.00,,---,0.00,VWS V14.00,2013-02-22 17:59:00,
2013-02-22 10:04:00,33.7,20.9,30.02,South,174,8.0,17.0,59,0.00,,---,0.00,VWS V14.00,2013-02-22 18:04:00,
2013-02-22 10:09:00,33.7,20.9,30.02,SSW,202,22.0,24.0,59,0.00,,---,0.00,VWS V14.00,2013-02-22 18:09:00,
2013-02-22 10:14:00,33.7,20.5,30.02,SSW,210,16.0,20.0,58,0.00,,---,0.00,VWS V14.00,2013-02-22 18:14:00,
2013-02-22 10:19:00,33.7,21.3,30.02,SW,224,16.0,20.0,60,0.00,,---,0.00,VWS V14.00,2013-02-22 18:19:00,
2013-02-22 10:24:00,33.7,21.3,30.02,SW,219,13.0,29.0,60,0.00,,---,0.00,VWS V14.00,2013-02-22 18:24:00,
2013-02-22 10:29:00,33.7,20.9,30.02,SSW,200,16.0,29.0,59,0.00,,---,0.00,VWS V14.00,2013-02-22 18:29:00,
2013-02-22 10:34:00,33.7,21.3,30.00,SSW,198,22.0,24.0,60,0.00,,---,0.00,VWS V14.00,2013-02-22 18:34:00,
2013-02-22 10:39:00,33.8,21.0,30.00,SSW,198,13.0,31.0,59,0.00,,---,0.00,VWS V14.00,2013-02-22 18:39:00,
2013-02-22 10:44:00,34.0,20.8,30.00,SSW,202,17.0,31.0,58,0.00,,---,0.00,VWS V14.00,2013-02-22 18:44:00,
2013-02-22 10:50:00,34.1,21.3,30.00,SSE,164,10.0,31.0,59,0.00,,---,0.00,VWS V14.00,2013-02-22 18:50:00,
2013-02-22 10:55:00,34.3,21.5,30.00,SSW,198,10.0,19.0,59,0.00,,---,0.00,VWS V14.00,2013-02-22 18:55:00,
2013-02-22 11:00:00,34.4,21.6,30.01,South,189,12.0,19.0,59,0.00,,---,0.00,VWS V14.00,2013-02-22 19:00:00,
2013-02-22 11:05:00,34.6,22.2,30.01,SSW,203,7.0,19.0,60,0.00,,---,0.00,VWS V14.00,2013-02-22 19:05:00,
2013-02-22 11:10:00,34.7,21.9,30.01,SSW,209,7.0,19.0,59,0.00,,---,0.00,VWS V14.00,2013-02-22 19:10:00,
2013-02-22 11:15:00,35.2,22.3,30.00,SSW,192,19.0,19.0,59,0.00,,---,0.00,VWS V14.00,2013-02-22 19:15:00,
2013-02-22 11:20:00,35.5,22.2,30.00,South,191,12.0,19.0,58,0.00,,---,0.00,VWS V14.00,2013-02-22 19:20:00,
2013-02-22 11:25:00,35.9,22.6,30.00,SW,217,9.0,16.0,58,0.00,,---,0.00,VWS V14.00,2013-02-22 19:25:00,
2013-02-22 11:30:00,36.8,23.4,29.95,SSW,203,16.0,19.0,58,0.00,,---,0.00,VWS V14.00,2013-02-22 19:30:00,
2013-02-22 11:35:00,37.9,24.9,29.95,SW,217,12.0,32.0,59,0.00,,---,0.00,VWS V14.00,2013-02-22 19:35:00,
2013-02-22 11:40:00,37.8,24.4,29.95,SSW,196,19.0,32.0,58,0.00,,---,0.00,VWS V14.00,2013-02-22 19:40:00,
2013-02-22 11:45:00,37.9,24.5,29.92,SSW,208,12.0,30.0,58,0.00,,---,0.00,VWS V14.00,2013-02-22 19:45:00,
2013-02-22 11:50:00,38.0,24.5,29.92,SW,217,19.0,30.0,58,0.00,,---,0.00,VWS V14.00,2013-02-22 19:50:00,
2013-02-22 11:55:00,38.3,24.8,29.92,SSW,200,29.0,31.0,58,0.00,,---,0.00,VWS V14.00,2013-02-22 19:55:00,
2013-02-22 12:00:00,38.6,24.7,29.93,SW,216,18.0,18.0,57,0.00,,---,0.00,VWS V14.00,2013-02-22 20:00:00,
2013-02-22 12:05:00,38.9,24.1,29.93,SW,232,21.0,29.0,55,0.00,,---,0.00,VWS V14.00,2013-02-22 20:05:00,
2013-02-22 12:10:00,39.1,23.9,29.93,South,191,20.0,20.0,54,0.00,,---,0.00,VWS V14.00,2013-02-22 20:10:00,
2013-02-22 12:15:00,39.6,24.8,29.92,SSW,192,13.0,22.0,55,0.00,,---,0.00,VWS V14.00,2013-02-22 20:15:00,
2013-02-22 12:21:00,40.9,25.1,29.92,SW,224,10.0,13.0,53,0.00,,---,0.00,VWS V14.00,2013-02-22 20:21:00,
2013-02-22 12:26:00,41.8,25.5,29.92,SSW,212,11.0,28.0,52,0.00,,---,0.00,VWS V14.00,2013-02-22 20:26:00,
2013-02-22 12:31:00,42.3,25.9,29.90,South,181,7.0,16.0,52,0.00,,---,0.00,VWS V14.00,2013-02-22 20:31:00,
2013-02-22 12:36:00,42.6,26.2,29.90,South,185,10.0,24.0,52,0.00,,---,0.00,VWS V14.00,2013-02-22 20:36:00,
2013-02-22 12:41:00,43.5,25.6,29.90,SSW,205,17.0,21.0,49,0.00,,---,0.00,VWS V14.00,2013-02-22 20:41:00,
2013-02-22 12:46:00,44.2,26.3,29.88,SW,216,7.0,21.0,49,0.00,,---,0.00,VWS V14.00,2013-02-22 20:46:00,
2013-02-22 12:51:00,44.6,26.6,29.88,SW,222,5.0,7.0,49,0.00,,---,0.00,VWS V14.00,2013-02-22 20:51:00,
2013-02-22 12:56:00,44.1,25.7,29.88,South,178,8.0,17.0,48,0.00,,---,0.00,VWS V14.00,2013-02-22 20:56:00,
2013-02-22 13:01:00,44.3,25.4,29.87,SW,224,10.0,12.0,47,0.00,,---,0.00,VWS V14.00,2013-02-22 21:01:00,
2013-02-22 13:06:00,44.2,23.1,29.87,SW,223,12.0,21.0,43,0.00,,---,0.00,VWS V14.00,2013-02-22 21:06:00,
2013-02-22 13:11:00,43.3,22.3,29.87,SSW,192,19.0,19.0,43,0.00,,---,0.00,VWS V14.00,2013-02-22 21:11:00,
2013-02-22 13:16:00,42.2,24.9,29.90,SSW,203,14.0,27.0,50,0.00,,---,0.00,VWS V14.00,2013-02-22 21:16:00,
2013-02-22 13:21:00,40.2,23.1,29.90,South,188,11.0,13.0,50,0.00,,---,0.00,VWS V14.00,2013-02-22 21:21:00,
2013-02-22 13:26:00,39.2,29.5,29.90,SSW,193,19.0,24.0,68,0.00,,---,0.00,VWS V14.00,2013-02-22 21:26:00,
2013-02-22 13:31:00,38.8,29.2,29.91,South,182,3.0,5.0,68,0.00,,---,0.00,VWS V14.00,2013-02-22 21:31:00,
2013-02-22 13:36:00,38.9,30.3,29.91,South,169,9.0,10.0,71,0.00,,---,0.00,VWS V14.00,2013-02-22 21:36:00,
2013-02-22 13:41:00,37.8,29.3,29.91,SSW,203,13.0,20.0,71,0.00,,---,0.00,VWS V14.00,2013-02-22 21:41:00,
2013-02-22 13:46:00,37.2,28.7,29.93,South,191,13.0,21.0,71,0.00,,---,0.00,VWS V14.00,2013-02-22 21:46:00,
2013-02-22 13:51:00,36.5,29.0,29.93,South,181,14.0,21.0,74,0.00,,---,0.00,VWS V14.00,2013-02-22 21:51:00,
2013-02-22 13:56:00,35.8,29.0,29.93,SSW,212,10.0,26.0,76,0.00,,---,0.00,VWS V14.00,2013-02-22 21:56:00,
2013-02-22 14:01:00,35.3,29.1,29.91,SSW,200,9.0,14.0,78,0.00,,---,0.00,VWS V14.00,2013-02-22 22:01:00,
2013-02-22 14:07:00,35.2,29.7,29.91,South,188,13.0,21.0,80,0.00,,---,0.00,VWS V14.00,2013-02-22 22:07:00,
2013-02-22 14:12:00,35.0,29.2,29.91,SSW,208,10.0,17.0,79,0.00,,---,0.00,VWS V14.00,2013-02-22 22:12:00,
2013-02-22 14:17:00,34.7,29.2,29.90,South,172,11.0,24.0,80,0.00,,---,0.00,VWS V14.00,2013-02-22 22:17:00,
2013-02-22 14:22:00,34.7,29.8,29.90,South,191,12.0,14.0,82,0.00,,---,0.00,VWS V14.00,2013-02-22 22:22:00,
2013-02-22 14:27:00,34.9,29.4,29.90,SW,223,11.0,24.0,80,0.00,,---,0.00,VWS V14.00,2013-02-22 22:27:00,
2013-02-22 14:32:00,34.9,29.7,29.91,South,182,6.0,21.0,81,0.00,,---,0.01,VWS V14.00,2013-02-22 22:32:00,
2013-02-22 14:37:00,34.9,30.0,29.91,South,171,7.0,22.0,82,0.00,,---,0.01,VWS V14.00,2013-02-22 22:37:00,
2013-02-22 14:42:00,34.6,29.4,29.91,South,174,7.0,18.0,81,0.00,,---,0.01,VWS V14.00,2013-02-22 22:42:00,
2013-02-22 14:47:00,34.3,28.8,29.90,SSW,209,11.0,24.0,80,0.00,,---,0.01,VWS V14.00,2013-02-22 22:47:00,
2013-02-22 14:52:00,34.0,29.4,29.90,South,189,8.0,17.0,83,0.00,,---,0.01,VWS V14.00,2013-02-22 22:52:00,
2013-02-22 14:57:00,34.0,29.1,29.90,SSW,198,17.0,18.0,82,0.00,,---,0.01,VWS V14.00,2013-02-22 22:57:00,
2013-02-22 15:02:00,34.1,29.5,29.88,SW,224,12.0,24.0,83,0.00,,---,0.01,VWS V14.00,2013-02-22 23:02:00,
2013-02-22 15:07:00,34.1,28.9,29.88,South,191,18.0,25.0,81,0.00,,---,0.01,VWS V14.00,2013-02-22 23:07:00,
2013-02-22 15:12:00,34.1,28.9,29.88,SSW,208,14.0,24.0,81,0.00,,---,0.01,VWS V14.00,2013-02-22 23:12:00,
2013-02-22 15:17:00,34.0,29.4,29.89,South,189,10.0,24.0,83,0.00,,---,0.02,VWS V14.00,2013-02-22 23:17:00,
2013-02-22 15:22:00,33.7,28.8,29.89,SSW,199,7.0,17.0,82,0.00,,---,0.02,VWS V14.00,2013-02-22 23:22:00,
2013-02-22 15:27:00,33.4,28.8,29.89,SSW,199,5.0,19.0,83,0.00,,---,0.02,VWS V14.00,2013-02-22 23:27:00,
2013-02-22 15:32:00,33.2,28.9,29.90,SSW,195,9.0,10.0,84,0.00,,---,0.02,VWS V14.00,2013-02-22 23:32:00,
2013-02-22 15:38:00,33.4,29.1,29.90,South,181,12.0,13.0,84,0.00,,---,0.02,VWS V14.00,2013-02-22 23:38:00,
2013-02-22 15:43:00,33.4,28.5,29.90,SSW,203,10.0,14.0,82,0.00,,---,0.02,VWS V14.00,2013-02-22 23:43:00,
2013-02-22 15:48:00,33.4,28.8,29.90,South,188,8.0,14.0,83,0.00,,---,0.02,VWS V14.00,2013-02-22 23:48:00,
2013-02-22 15:53:00,33.4,28.8,29.90,SSE,158,7.0,22.0,83,0.00,,---,0.02,VWS V14.00,2013-02-22 23:53:00,
2013-02-22 15:58:00,33.7,28.8,29.90,SSE,165,7.0,22.0,82,0.00,,---,0.03,VWS V14.00,2013-02-22 23:58:00,
2013-02-22 16:03:00,34.0,29.1,29.85,SSW,198,14.0,18.0,82,0.00,,---,0.03,VWS V14.00,2013-02-23 00:03:00,
2013-02-22 16:08:00,34.3,28.8,29.85,SSW,198,12.0,24.0,80,0.00,,---,0.03,VWS V14.00,2013-02-23 00:08:00,
2013-02-22 16:13:00,34.4,28.9,29.85,SW,217,15.0,28.0,80,0.00,,---,0.03,VWS V14.00,2013-02-23 00:13:00,
2013-02-22 16:18:00,34.7,28.9,29.83,SSW,196,30.0,30.0,79,0.00,,---,0.03,VWS V14.00,2013-02-23 00:18:00,
2013-02-22 16:23:00,34.7,29.2,29.83,South,188,14.0,17.0,80,0.00,,---,0.03,VWS V14.00,2013-02-23 00:23:00,
2013-02-22 16:28:00,34.6,29.1,29.83,SSW,203,21.0,24.0,80,0.00,,---,0.03,VWS V14.00,2013-02-23 00:28:00,
2013-02-22 16:33:00,34.6,29.7,29.82,SSW,203,21.0,31.0,82,0.00,,---,0.03,VWS V14.00,2013-02-23 00:33:00,
2013-02-22 16:38:00,34.7,29.2,29.82,SSW,199,17.0,31.0,80,0.00,,---,0.03,VWS V14.00,2013-02-23 00:38:00,
2013-02-22 16:43:00,34.7,29.2,29.82,SSW,205,21.0,31.0,80,0.00,,---,0.03,VWS V14.00,2013-02-23 00:43:00,
2013-02-22 16:49:00,34.6,29.4,29.82,South,191,15.0,31.0,81,0.00,,---,0.03,VWS V14.00,2013-02-23 00:49:00,
2013-02-22 16:54:00,34.3,29.4,29.82,South,189,7.0,18.0,82,0.00,,---,0.03,VWS V14.00,2013-02-23 00:54:00,
2013-02-22 16:59:00,34.0,29.1,29.82,SSW,193,16.0,18.0,82,0.00,,---,0.03,VWS V14.00,2013-02-23 00:59:00,
2013-02-22 17:04:00,34.0,29.1,29.83,South,184,11.0,22.0,82,0.00,,---,0.03,VWS V14.00,2013-02-23 01:04:00,
2013-02-22 17:09:00,34.1,29.2,29.83,SW,232,11.0,28.0,82,0.00,,---,0.03,VWS V14.00,2013-02-23 01:09:00,
2013-02-22 17:14:00,34.0,29.4,29.83,SW,220,17.0,20.0,83,0.00,,---,0.03,VWS V14.00,2013-02-23 01:14:00,
2013-02-22 17:19:00,34.0,28.8,29.82,SSW,209,19.0,25.0,81,0.00,,---,0.03,VWS V14.00,2013-02-23 01:19:00,
2013-02-22 17:24:00,34.1,29.2,29.82,South,188,13.0,21.0,82,0.00,,---,0.03,VWS V14.00,2013-02-23 01:24:00,
2013-02-22 17:29:00,34.1,29.8,29.82,SSW,199,14.0,25.0,84,0.00,,---,0.03,VWS V14.00,2013-02-23 01:29:00,
2013-02-22 17:34:00,34.1,29.2,29.81,SSW,203,14.0,26.0,82,0.00,,---,0.03,VWS V14.00,2013-02-23 01:34:00,
2013-02-22 17:39:00,34.1,29.5,29.81,SSW,210,14.0,26.0,83,0.00,,---,0.03,VWS V14.00,2013-02-23 01:39:00,
2013-02-22 17:44:00,34.1,28.9,29.83,South,191,15.0,21.0,81,0.00,,---,0.03,VWS V14.00,2013-02-23 01:44:00,
2013-02-22 17:50:00,34.3,29.1,29.83,South,186,12.0,21.0,81,0.00,,---,0.03,VWS V14.00,2013-02-23 01:50:00,
2013-02-22 17:55:00,34.3,29.4,29.83,SW,222,7.0,18.0,82,0.00,,---,0.03,VWS V14.00,2013-02-23 01:55:00,
2013-02-22 18:00:00,34.1,29.2,29.82,SW,220,6.0,18.0,82,0.00,,---,0.03,VWS V14.00,2013-02-23 02:00:00,
2013-02-22 18:05:00,34.3,29.1,29.82,South,186,11.0,14.0,81,0.00,,---,0.03,VWS V14.00,2013-02-23 02:05:00,
2013-02-22 18:10:00,34.6,29.1,29.82,SSW,200,12.0,30.0,80,0.00,,---,0.03,VWS V14.00,2013-02-23 02:10:00,
2013-02-22 18:15:00,34.7,28.9,29.81,South,191,13.0,25.0,79,0.00,,---,0.03,VWS V14.00,2013-02-23 02:15:00,
2013-02-22 18:20:00,34.6,28.5,29.81,SW,215,14.0,25.0,78,0.00,,---,0.03,VWS V14.00,2013-02-23 02:20:00,
2013-02-22 18:25:00,34.6,28.8,29.81,South,181,10.0,21.0,79,0.00,,---,0.03,VWS V14.00,2013-02-23 02:25:00,
2013-02-22 18:30:00,34.6,28.8,29.81,SSW,199,13.0,27.0,79,0.00,,---,0.03,VWS V14.00,2013-02-23 02:30:00,
2013-02-22 18:35:00,34.3,29.1,29.81,South,181,7.0,13.0,81,0.00,,---,0.03,VWS V14.00,2013-02-23 02:35:00,
2013-02-22 18:40:00,34.3,29.1,29.81,SSW,198,11.0,19.0,81,0.00,,---,0.03,VWS V14.00,2013-02-23 02:40:00,
2013-02-22 18:45:00,34.3,28.5,29.83,South,185,11.0,17.0,79,0.00,,---,0.04,VWS V14.00,2013-02-23 02:45:00,
2013-02-22 18:50:00,34.3,29.1,29.83,South,186,11.0,11.0,81,0.00,,---,0.04,VWS V14.00,2013-02-23 02:50:00,
2013-02-22 18:56:00,34.3,29.1,29.83,South,186,16.0,17.0,81,0.00,,---,0.04,VWS V14.00,2013-02-23 02:56:00,
2013-02-22 19:01:00,34.3,28.8,29.83,South,189,8.0,8.0,80,0.00,,---,0.04,VWS V14.00,2013-02-23 03:01:00,
2013-02-22 19:06:00,34.1,29.2,29.83,SSW,206,11.0,13.0,82,0.00,,---,0.04,VWS V14.00,2013-02-23 03:06:00,
2013-02-22 19:11:00,34.1,28.9,29.83,South,188,5.0,5.0,81,0.00,,---,0.04,VWS V14.00,2013-02-23 03:11:00,
2013-02-22 19:16:00,34.1,28.9,29.83,South,182,4.0,13.0,81,0.00,,---,0.04,VWS V14.00,2013-02-23 03:16:00,
2013-02-22 19:21:00,34.1,28.9,29.83,South,169,6.0,6.0,81,0.00,,---,0.04,VWS V14.00,2013-02-23 03:21:00,
2013-02-22 19:26:00,34.0,28.5,29.83,SSW,199,14.0,14.0,80,0.00,,---,0.04,VWS V14.00,2013-02-23 03:26:00,
2013-02-22 19:31:00,34.0,28.5,29.82,South,189,8.0,8.0,80,0.00,,---,0.04,VWS V14.00,2013-02-23 03:31:00,
2013-02-22 19:36:00,34.0,28.5,29.82,SSW,192,6.0,10.0,80,0.00,,---,0.04,VWS V14.00,2013-02-23 03:36:00,
2013-02-22 19:41:00,34.0,28.5,29.82,SSW,212,7.0,10.0,80,0.00,,---,0.04,VWS V14.00,2013-02-23 03:41:00,
2013-02-22 19:46:00,34.0,28.8,29.82,South,186,7.0,10.0,81,0.00,,---,0.04,VWS V14.00,2013-02-23 03:46:00,
2013-02-22 19:52:00,34.0,28.8,29.82,SSW,192,6.0,10.0,81,0.00,,---,0.04,VWS V14.00,2013-02-23 03:52:00,
2013-02-22 19:57:00,33.8,28.6,29.82,SSW,196,7.0,14.0,81,0.00,,---,0.04,VWS V14.00,2013-02-23 03:57:00,
2013-02-22 20:02:00,33.8,28.0,29.83,South,172,5.0,12.0,79,0.00,,---,0.04,VWS V14.00,2013-02-23 04:02:00,
2013-02-22 20:07:00,33.8,28.6,29.83,SSE,165,3.0,12.0,81,0.00,,---,0.04,VWS V14.00,2013-02-23 04:07:00,
2013-02-22 20:12:00,33.7,28.8,29.83,SSW,202,3.0,6.0,82,0.00,,---,0.04,VWS V14.00,2013-02-23 04:12:00,
2013-02-22 20:17:00,33.5,28.3,29.85,WNW,298,2.0,12.0,81,0.00,,---,0.04,VWS V14.00,2013-02-23 04:17:00,
2013-02-22 20:22:00,33.1,27.9,29.85,NW,309,2.0,7.0,81,0.00,,---,0.04,VWS V14.00,2013-02-23 04:22:00,
2013-02-22 20:27:00,31.9,26.1,29.85,NNE,20,1.0,10.0,79,0.00,,---,0.04,VWS V14.00,2013-02-23 04:27:00,
2013-02-22 20:32:00,31.6,25.9,29.88,WNW,287,0.0,0.0,79,0.00,,---,0.04,VWS V14.00,2013-02-23 04:32:00,
2013-02-22 20:37:00,31.2,25.5,29.88,WSW,240,5.0,12.0,79,0.00,,---,0.04,VWS V14.00,2013-02-23 04:37:00,
2013-02-22 20:42:00,31.2,22.6,29.88,South,188,4.0,4.0,70,0.00,,---,0.04,VWS V14.00,2013-02-23 04:42:00,
2013-02-22 20:48:00,31.2,21.2,29.87,South,182,5.0,7.0,66,0.00,,---,0.04,VWS V14.00,2013-02-23 04:48:00,
2013-02-22 20:53:00,31.2,21.2,29.87,South,181,2.0,5.0,66,0.00,,---,0.04,VWS V14.00,2013-02-23 04:53:00,
2013-02-22 20:58:00,31.2,20.1,29.87,South,182,3.0,7.0,63,0.00,,---,0.04,VWS V14.00,2013-02-23 04:58:00,
2013-02-22 21:00:00,31.3,20.2,29.87,South,181,3.0,11.0,63,0.00,,---,0.04,VWS V14.00,2013-02-23 05:00:00,
2013-02-22 21:06:00,31.0,21.0,29.87,SSW,199,0.0,8.0,66,0.00,,---,0.04,VWS V14.00,2013-02-23 05:06:00,
2013-02-22 21:08:00,30.7,20.7,29.87,SSW,196,2.0,8.0,66,0.00,,---,0.04,VWS V14.00,2013-02-23 05:08:00,
2013-02-22 21:13:00,30.4,19.7,29.87,North,359,0.0,4.0,64,0.00,,---,0.04,VWS V14.00,2013-02-23 05:13:00,
2013-02-22 21:18:00,30.3,20.0,29.87,South,178,4.0,5.0,65,0.00,,---,0.04,VWS V14.00,2013-02-23 05:18:00,
2013-02-22 21:23:00,30.1,20.5,29.87,South,174,3.0,7.0,67,0.00,,---,0.04,VWS V14.00,2013-02-23 05:23:00,
2013-02-22 21:28:00,29.7,21.5,29.87,SSW,195,3.0,7.0,71,0.00,,---,0.04,VWS V14.00,2013-02-23 05:28:00,
2013-02-22 21:34:00,29.4,21.5,29.87,South,186,5.0,6.0,72,0.00,,---,0.04,VWS V14.00,2013-02-23 05:34:00,
2013-02-22 21:39:00,29.8,21.9,29.87,South,181,5.0,8.0,72,0.00,,---,0.04,VWS V14.00,2013-02-23 05:39:00,
2013-02-22 21:44:00,30.0,21.4,29.87,South,174,7.0,8.0,70,0.00,,---,0.04,VWS V14.00,2013-02-23 05:44:00,
2013-02-22 21:49:00,30.0,22.1,29.89,South,186,1.0,8.0,72,0.00,,---,0.04,VWS V14.00,2013-02-23 05:49:00,
2013-02-22 21:54:00,30.0,22.7,29.89,SSE,164,4.0,5.0,74,0.00,,---,0.04,VWS V14.00,2013-02-23 05:54:00,
2013-02-22 21:59:00,30.0,23.4,29.89,North,0,2.0,5.0,76,0.00,,---,0.04,VWS V14.00,2013-02-23 05:59:00,
2013-02-22 22:04:00,29.8,23.5,29.92,North,359,0.0,2.0,77,0.00,,---,0.04,VWS V14.00,2013-02-23 06:04:00,
2013-02-22 22:09:00,29.8,24.1,29.92,North,359,0.0,2.0,79,0.00,,---,0.04,VWS V14.00,2013-02-23 06:09:00,
2013-02-22 22:14:00,29.5,24.1,29.92,ESE,116,0.0,2.0,80,0.00,,---,0.04,VWS V14.00,2013-02-23 06:14:00,
2013-02-22 22:19:00,29.3,23.9,29.93,SSE,152,2.0,3.0,80,0.00,,---,0.04,VWS V14.00,2013-02-23 06:19:00,
2013-02-22 22:24:00,29.0,23.3,29.93,NW,308,0.0,2.0,79,0.00,,---,0.04,VWS V14.00,2013-02-23 06:24:00,
2013-02-22 22:29:00,28.7,21.5,29.94,SSW,192,0.0,5.0,74,0.00,,---,0.04,VWS V14.00,2013-02-23 06:29:00,
2013-02-22 22:35:00,28.5,21.0,29.94,North,359,0.0,3.0,73,0.00,,---,0.04,VWS V14.00,2013-02-23 06:35:00,
2013-02-22 22:40:00,28.4,20.9,29.94,North,354,0.0,3.0,73,0.00,,---,0.04,VWS V14.00,2013-02-23 06:40:00,
2013-02-22 22:45:00,28.1,21.2,29.94,North,354,0.0,0.0,75,0.00,,---,0.04,VWS V14.00,2013-02-23 06:45:00,
2013-02-22 22:50:00,27.8,20.3,29.94,North,349,0.0,3.0,73,0.00,,---,0.04,VWS V14.00,2013-02-23 06:50:00,
2013-02-22 22:55:00,27.5,20.9,29.94,North,350,0.0,2.0,76,0.00,,---,0.04,VWS V14.00,2013-02-23 06:55:00,
2013-02-22 23:00:00,27.5,20.0,29.94,SSW,213,0.0,5.0,73,0.00,,---,0.04,VWS V14.00,2013-02-23 07:00:00,
2013-02-22 23:05:00,27.9,17.7,29.94,SSW,192,0.0,8.0,65,0.00,,---,0.04,VWS V14.00,2013-02-23 07:05:00,
2013-02-22 23:10:00,28.1,18.6,29.94,South,185,0.0,8.0,67,0.00,,---,0.04,VWS V14.00,2013-02-23 07:10:00,
2013-02-22 23:15:00,28.1,18.9,29.94,SSE,148,0.0,2.0,68,0.00,,---,0.04,VWS V14.00,2013-02-23 07:15:00,
2013-02-22 23:20:00,27.9,19.4,29.94,South,176,0.0,5.0,70,0.00,,---,0.04,VWS V14.00,2013-02-23 07:20:00,
2013-02-22 23:25:00,27.6,20.1,29.94,South,175,3.0,3.0,73,0.00,,---,0.04,VWS V14.00,2013-02-23 07:25:00,
2013-02-22 23:30:00,27.5,20.3,29.95,SSW,209,0.0,6.0,74,0.00,,---,0.04,VWS V14.00,2013-02-23 07:30:00,
2013-02-22 23:35:00,27.2,20.6,29.95,SSW,209,0.0,0.0,76,0.00,,---,0.04,VWS V14.00,2013-02-23 07:35:00,
2013-02-22 23:40:00,27.0,20.5,29.95,SSW,206,1.0,3.0,76,0.00,,---,0.04,VWS V14.00,2013-02-23 07:40:00,
2013-02-22 23:45:00,26.7,20.5,29.95,SSW,205,1.0,3.0,77,0.00,,---,0.04,VWS V14.00,2013-02-23 07:45:00,
2013-02-22 23:50:00,26.6,20.4,29.95,South,191,5.0,7.0,77,0.00,,---,0.04,VWS V14.00,2013-02-23 07:50:00,
2013-02-22 23:55:00,26.9,20.4,29.95,South,189,5.0,7.0,76,0.00,,---,0.04,VWS V14.00,2013-02-23 07:55:00,